Location: Newark
(50.4348°N, 30.5552°E)
Time: 11:15:26
(UTC+00:00)

Vanguard 3 - Pass Details

Date: 23 January 2020
Orbit: 508 x 3263 km, 33.3° (Epoch: 19 February)

Event Time Altitude Azimuth Distance (km) Brightness Sun altitude
Rises 20:45:46 0° 269° (W) 6,777 12.1 -54.8°
Reaches altitude 10° 20:51:53 10° 258° (WSW) 5,357 11.4 -55.4°
Enters shadow 20:56:04 17° 246° (WSW) 4,435 10.8 -55.7°
